#timestamp,LO_Frequency,Hit,StdDev 
1628254815.6,286046995.1,N
1628254835.4,286046995.0,N
1628254855.3,286046997.2,N
1628254875.1,286046995.7,N
1628254876.0,286046995.7,N
1628254895.8,286046996.2,N
1628254915.7,286046996.1,N
1628254935.5,286046993.7,N
1628254955.4,286046995.3,N
1628254975.2,286046994.9,N
1628254995.0,286046995.5,N
1628254995.9,286046995.5,N
1628255015.8,286046997.2,N
1628255035.6,286046997.7,N
1628255055.4,286046999.6,N
1628255075.3,286046997.8,N
1628255095.1,286046997.4,N
1628255115.9,286046997.9,N
1628255135.7,286046996.1,N
1628255155.5,286046995.4,N
1628255175.4,286046997.8,N
1628255195.2,286046996.6,N
1628255215.1,286046998.8,N
1628255216.0,286046998.8,N
1628255235.8,286046998.7,N
1628255255.6,286046998.7,N
1628255275.5,286046999.4,N
1628255295.3,286046999.4,N
1628255315.1,286046999.5,N
1628255335.9,286046999.1,N
1628255355.7,286046998.3,N
1628255375.6,286046999.9,N
1628255395.4,286047000.0,N
1628255415.2,286047002.4,N
1628255435.1,286047002.4,N
1628255436.0,286047002.4,N
1628255455.8,286047002.0,N
1628255475.6,286047001.9,N
1628255495.5,286047001.8,N
1628255515.3,286047001.3,N
1628255535.2,286046999.7,N
1628255555.9,286047002.7,N
1628255575.7,286047004.4,N
1628255595.6,286047002.0,N
1628255615.4,286047002.6,N
1628255635.2,286047002.4,N
1628255655.1,286047000.7,N
1628255656.0,286047000.7,N
1628255675.8,286046999.0,N
1628255695.7,286046998.6,N
1628255715.5,286047002.7,N
1628255735.3,286047003.0,N
1628255755.2,286047003.8,N
1628255775.0,286047003.8,N
1628255775.9,286047003.8,N
1628255795.7,286047003.1,N
1628255815.6,286047002.5,N
1628255835.4,286047000.1,N
1628255855.3,286047001.1,N
1628255875.1,286046998.8,N
1628255876.0,286046998.8,N
1628255895.8,286046999.1,N
1628255915.7,286046999.6,N
1628255935.5,286046996.5,N
1628255955.3,286046997.0,N
1628255975.2,286046999.0,N
1628255995.0,286046998.8,N
1628255995.9,286046998.8,N
1628256015.8,286046998.9,N
1628256035.6,286046998.3,N
1628256055.4,286047000.7,N
1628256075.3,286046999.8,N
1628256095.1,286046999.7,N
1628256115.9,286047000.9,N
1628256135.7,286047000.9,N
1628256155.5,286047000.3,N
1628256175.4,286047002.8,N
1628256195.2,286046999.9,N
1628256215.0,286047000.5,N
1628256215.9,286047000.5,N
1628256235.8,286046999.9,N
1628256255.6,286047000.1,N
1628256275.5,286047002.7,N
1628256295.3,286046999.9,N
1628256315.1,286047000.0,N
1628256335.9,286046999.7,N
1628256355.7,286047000.9,N
1628256375.5,286046998.1,N
1628256395.4,286046998.1,N
1628256415.2,286046998.6,N
1628256435.1,286046998.3,N
1628256436.0,286046998.3,N
1628256455.8,286046999.5,N
1628256475.6,286047001.2,N
1628256495.5,286047000.8,N
1628256515.3,286047000.3,N
1628256535.1,286047001.0,N
1628256555.9,286047000.8,N
1628256575.7,286047001.2,N
1628256595.6,286047001.2,N
1628256615.4,286047002.8,N
1628256635.2,286047000.1,N
1628256655.1,286047000.0,N
1628256656.0,286047000.0,N
1628256675.8,286046999.0,N
1628256695.6,286047000.9,N
1628256715.5,286046999.7,N
1628256735.3,286047000.3,N
1628256755.2,286047000.9,N
1628256775.9,286047001.6,N
1628256795.7,286047003.4,N
1628256815.6,286047005.6,Y
1628256835.4,286047003.4,P
1628256855.2,286047001.3,N
1628256875.1,286047004.0,P
1628256876.0,286047004.0,N
1628256895.8,286047003.1,N
1628256915.7,286047001.3,N
1628256935.5,286047003.9,N
1628256955.3,286047003.5,N
1628256975.2,286047005.4,Y
1628256995.0,286047002.3,P
1628256995.9,286047002.3,P
1628257015.8,286047002.5,P
1628257035.6,286047002.6,Y
1628257055.4,286046998.2,P
1628257075.3,286046998.4,N
1628257095.1,286047000.7,N
1628257115.8,286047000.4,N
1628257135.7,286047000.1,N
1628257155.5,286047000.2,N
1628257175.4,286047002.4,N
1628257195.2,286047002.7,N
1628257215.0,286047000.1,N
1628257215.9,286047000.1,N
1628257235.8,286046999.9,N
1628257255.6,286047000.3,N
1628257275.4,286047000.6,N
1628257295.3,286047000.1,N
1628257315.1,286046999.8,N
1628257335.9,286047000.3,N
1628257355.7,286047001.0,N
1628257375.5,286046998.1,N
1628257395.4,286047001.1,N
1628257415.2,286046998.6,N
1628257435.0,286046998.7,N
1628257435.9,286046998.7,N
1628257455.8,286046997.1,N
1628257475.6,286046995.7,Y
1628257495.5,286046993.4,P
1628257515.3,286046994.6,N
1628257535.1,286046991.7,N
1628257555.9,286046994.3,N
1628257575.7,286046992.0,N
1628257595.5,286046993.2,N
1628257615.4,286046993.2,N
1628257635.2,286046990.8,Y
1628257655.1,286046997.2,P
1628257656.0,286046997.2,N
1628257675.8,286046996.6,N
1628257695.6,286047001.1,N
1628257715.9,286047001.1,N
1628257735.7,286047001.2,N
1628257755.5,286046998.3,N
1628257775.4,286046998.8,N
1628257795.2,286046996.7,N
1628257815.1,286046996.6,N
1628257816.0,286046996.6,N
1628257835.8,286046996.9,N
1628257855.6,286046998.9,N
1628257875.5,286046997.6,N
1628257895.3,286046996.9,N
1628257915.1,286046998.1,N
1628257935.9,286046999.4,N
1628257955.7,286046996.9,N
1628257975.6,286046996.7,N
1628257995.4,286046999.6,N
1628258015.2,286046998.8,N
1628258035.1,286047000.1,N
1628258036.0,286047000.1,N
1628258055.8,286047000.5,N
1628258075.7,286046998.7,N
1628258095.5,286046999.3,N
1628258115.3,286046995.3,N
1628258135.2,286046999.5,N
1628258155.9,286046998.9,N
1628258175.7,286046999.0,N
1628258195.6,286046996.9,N
1628258215.4,286046997.8,N
1628258235.3,286046999.5,N
1628258255.1,286046998.8,N
1628258256.0,286046998.8,N
1628258275.8,286047001.2,N
1628258295.7,286046998.7,N
1628258315.5,286046999.5,N
1628258335.3,286046999.1,N
1628258355.2,286046999.2,N
1628258375.0,286046998.2,N
1628258375.9,286046998.2,N
1628258395.8,286046999.3,N
